Regional Weather Roundup
Issued by NWS

Home | Current Version | Previous Version | Graphics & Text | Print | Product List | Glossary On
Versions: 1 2 3 4 5 6 7 8 9 10 11 12 13 14 15 16 17 18 19 20 21 22 23 24 25 26 27 28 29 30 31 32 33 34 35 36 37 38 39 40 41 42 43 44 45 46 47 48 49 50
000
ASUS43 KMPX 240210
RWRMN
WEATHER ROUNDUP FOR MINNESOTA
NATIONAL WEATHER SERVICE TWIN CITIES/CHANHASSEN MN
800 PM CST THU NOV 23 2017


NOTE: "FAIR" INDICATES FEW OR NO CLOUDS BELOW 12,000 FEET WITH NO
SIGNIFICANT WEATHER AND/OR OBSTRUCTIONS TO VISIBILITY. N/A MEANS
CURRENT SKY AND/OR WEATHER CONDITIONS ARE NOT AVAILABLE.

MNZ060>063-068>070-240300-
   Twin Cities Metro

CITY           SKY/WX    TMP DP  RH WIND       PRES   REMARKS
TWIN CITIES    PTCLDY    38  28  67 SE7       29.69F
ST PAUL        CLEAR     39  28  64 SE9       29.71F
CRYSTAL        CLEAR     41  26  55 S10       29.66F
BLAINE         PTCLDY    43  28  56 S14       29.67F
LAKEVILLE      CLEAR     39  30  70 S12G17    29.69F
EDEN PRAIRIE   CLEAR     42  29  59 S12       29.67F
SOUTH ST PAUL  CLEAR     40  27  60 S5        29.70F
LAKE ELMO      FAIR      37  28  70 S12       29.70F
$$
MNZ001>005-007-008-013>017-022>024-027-028-240300-
   Northwest Minnesota

CITY           SKY/WX    TMP DP  RH WIND       PRES   REMARKS
BEMIDJI        CLOUDY    37  30  77 S12       29.47F
HALLOCK        CLOUDY    36  32  87 S20       29.33F
ROSEAU         PTCLDY    34  28  80 S12       29.37F WCI  25
WARROAD        CLOUDY    30  27  86 S8        29.38F WCI  23
THIEF RVR FALL CLOUDY    36  32  85 S8        29.40F
CROOKSTON      CLOUDY    41  32  70 S17       29.41F
FOSSTON        CLOUDY    39  32  75 S17G24    29.44F
DETROIT LAKES  CLEAR     37  32  81 S7        29.51F
MOORHEAD       CLEAR     39  30  70 S15       29.49F
PARK RAPIDS    PTCLDY    36  29  75 S10       29.52F
MAHNOMEN       FAIR      42  33  69 S20G25    29.46F
$$
MNZ006-009>011-018-025>026-240300-
   North Central Minnesota

CITY           SKY/WX    TMP DP  RH WIND       PRES   REMARKS
BAUDETTE       CLOUDY    28  24  85 SE7       29.41F WCI  21
FLAG ISLAND    CLOUDY    28  25  86 S18       29.38F WCI  16
INTL FALLS     CLOUDY    32  24  72 VRB7      29.46F WCI  26
WASKISH        CLOUDY    36  30  80 S9G21     29.43F
BIG FORK       CLOUDY    36  27  69 S8        29.50F
LONGVILLE      CLEAR     36  27  69 S7        29.54F
GRAND RAPIDS   CLOUDY    35  26  69 S12       29.56F WCI  27
CRANE LAKE     CLOUDY    27  25  93 CALM      29.55F
ORR            CLOUDY    30  23  74 SE7       29.50F WCI  23
COOK           CLOUDY    34  25  69 S6        29.53F WCI  29
WALKER         CLOUDY    38  29  70 S12       29.51F
$$
MNZ012-019>021-037-240300-
   Northeast Minnesota

CITY           SKY/WX    TMP DP  RH WIND       PRES   REMARKS
DULUTH         CLOUDY    34  24  67 SW13      29.59F WCI  25
ELY            CLOUDY    32  25  74 S5        29.55F WCI  27
HIBBING        CLOUDY    32  24  72 S6        29.55F WCI  26
EVELETH        CLOUDY    32  23  68 S5        29.58F WCI  28
DULUTH HARBOR  CLOUDY    36  28  75 SW5       29.63F
TWO HARBORS    CLOUDY    36  28  75 CALM      29.60F
SILVER BAY     PTCLDY    30  28  93 CALM      29.59F
GRAND MARAIS     N/A     37  31  78 S6        29.64F
G MARAIS ARPRT CLOUDY    28  25  86 S6        29.59F WCI  22
$$
MNZ029>031-032-039>041-046>048-054>057-064-240300-
   West Central Minnesota

CITY           SKY/WX    TMP DP  RH WIND       PRES   REMARKS
FERGUS FALLS   PTCLDY    41  30  65 S10       29.55F
MORRIS         CLOUDY    45  34  65 SE9       29.56F
ALEXANDRIA     PTCLDY    45  33  63 S16       29.57F
ELBOW LAKE     FAIR      40  32  73 S14       29.55F
WADENA         CLEAR     36  28  75 S8        29.54F
GLENWOOD       PTCLDY    43  34  70 S12       29.59F
APPLETON       MOCLDY    46  34  61 S6        29.58F
BENSON         PTCLDY    43  32  65 S8        29.61F
ORTONVILLE     CLOUDY    48  37  66 N7        29.56F
MADISON        PTCLDY    54  39  58 SW10      29.58F
WILLMAR        FAIR      36  30  80 SE7       29.63F
$$
MNZ033>034-036-042>043-049>051-058-059-240300-
   Central Minnesota

CITY           SKY/WX    TMP DP  RH WIND       PRES   REMARKS
ST CLOUD       CLEAR     39  29  67 S12       29.62F
SAUK CENTRE    FAIR      37  30  75 S8        29.60F
PAYNESVILLE    PTCLDY    42  32  67 S9G18     29.62F
AITKIN         CLEAR     34  25  69 S8        29.57F WCI  27
PINE RIVER     CLEAR     34  27  75 S5        29.60F WCI  30
BRAINERD       CLEAR     37  27  67 S9        29.58F
STAPLES        CLEAR     36  28  75 S8        29.56F
LITTLE FALLS   CLEAR     36  23  60 S6        29.60F
LITCHFIELD     CLEAR     43  32  65 S3        29.64F
BUFFALO        CLEAR     41  28  60 S9G17     29.66F
MAPLE LAKE     CLEAR     41  31  68 S8        29.65F
HUTCHINSON     CLOUDY    42  32  67 S9        29.66F
$$
MNZ037-044-045-052-053-240300-
   East Central Minnesota

CITY           SKY/WX    TMP DP  RH WIND       PRES   REMARKS
PRINCETON      CLEAR     39  28  65 S8        29.64F
MORA           CLEAR     34  25  69 S6        29.65F WCI  29
CAMBRIDGE      CLEAR     39  27  60 S9        29.64F
RUSH CITY      CLEAR     36  25  64 S9        29.65F
MOOSE LAKE     CLEAR     34  25  69 S5        29.60F WCI  30
HINCKLEY       FAIR      36  27  69 S6        29.64F
CLOQUET        CLEAR     36  21  55 S8        29.60F
MCGREGOR       CLEAR     34  27  75 S8        29.59F WCI  27
$$
MNZ071>073-080-081-089-090-097-098-240300-
   Southwest Minnesota

CITY           SKY/WX    TMP DP  RH WIND       PRES   REMARKS
MONTEVIDEO     CLEAR     45  34  65 SW9       29.61F
GRANITE FALLS  CLEAR     43  34  69 S9        29.64F
CANBY          CLOUDY    56  38  51 SW21G26   29.61F
MARSHALL       PTCLDY    54  38  54 SW18      29.61F
REDWOOD FALLS  CLEAR     42  30  62 S12       29.64F
OLIVIA         CLEAR     41  32  70 S9        29.63F
PIPESTONE      MOCLDY    46  36  66 S10       29.67F
WINDOM         CLEAR     46  30  53 S12       29.69F
WORTHINGTON    CLOUDY    46  34  62 S14       29.70F
JACKSON        CLEAR     43  32  65 S12       29.72F
SLAYTON        CLOUDY    50  37  60 SW21      29.68F
$$
MNZ065>067-074>077-082>085-091>093-240300-
   South Central Minnesota

CITY           SKY/WX    TMP DP  RH WIND       PRES   REMARKS
MANKATO        CLEAR     40  29  64 S9        29.71F
NEW ULM        CLEAR     43  28  56 S12       29.67F
ST JAMES       CLEAR     43  30  61 S12       29.70F
FAIRMONT       CLOUDY    41  31  67 S13       29.73F
GLENCOE        CLEAR     42  32  66 S12G18    29.66F
FARIBAULT      CLEAR     37  28  70 S9        29.73F
OWATONNA       PTCLDY    41  30  65 S16       29.73F
WASECA         CLEAR     39  30  70 S9        29.74F
ALBERT LEA     CLEAR     41  28  60 S8        29.76F
$$
MNZ078>079-086>088-094>096-240300-
   Southeast Minnesota

CITY           SKY/WX    TMP DP  RH WIND       PRES   REMARKS
ROCHESTER      CLEAR     36  27  69 S14       29.76F
RED WING       PTCLDY    41  23  48 S5        29.74F
STANTON        CLEAR     40  29  64 S9G16     29.70F
DODGE CENTER   CLEAR     39  28  65 S14       29.75F
WINONA         CLEAR     34  28  80 SE3       29.79F
AUSTIN         CLEAR     37  27  65 S8        29.77F
PRESTON        CLEAR     36  26  65 S13       29.79F
$$
ABBREVIATIONS USED IN REMARKS
   TC - TEMPERATURES IN CELSIUS
  WCI - WIND CHILL INDEX
   HX - HEAT INDEX
  VSB - VISIBILITY
$$




USA.gov is the U.S. government's official web portal to all federal, state and local government web resources and services.